TimeAKST,TemperatureF,Dew PointF,Humidity,Sea Level PressureIn,VisibilityMPH,Wind Direction,Wind SpeedMPH,Gust SpeedMPH,PrecipitationIn,Events,Conditions,WindDirDegrees,DateUTC
12:53 AM,-29.9,-9999,N/A,30.17,10.0,Calm,Calm,-,N/A,,Partly Cloudy,0,2012-12-07 09:53:00
1:53 AM,-31.0,-9999,N/A,30.17,10.0,Calm,Calm,-,N/A,,Partly Cloudy,0,2012-12-07 10:53:00
3:53 AM,-31.0,-9999,N/A,30.17,10.0,Calm,Calm,-,N/A,,Partly Cloudy,0,2012-12-07 12:53:00
4:53 AM,-29.9,-9999,N/A,30.17,10.0,South,4.6,-,N/A,,Partly Cloudy,170,2012-12-07 13:53:00
5:53 AM,-29.9,-9999,N/A,30.18,10.0,Calm,Calm,-,N/A,,Partly Cloudy,0,2012-12-07 14:53:00
6:53 AM,-29.9,-9999,N/A,30.18,10.0,Calm,Calm,-,N/A,,Partly Cloudy,0,2012-12-07 15:53:00
7:53 AM,-31.0,-9999,N/A,30.18,10.0,Calm,Calm,-,N/A,,Partly Cloudy,0,2012-12-07 16:53:00
8:53 AM,-29.9,-9999,N/A,30.18,10.0,Calm,Calm,-,N/A,,Partly Cloudy,0,2012-12-07 17:53:00
9:53 AM,-31.0,-9999,N/A,30.19,10.0,Calm,Calm,-,N/A,,Partly Cloudy,0,2012-12-07 18:53:00
10:53 AM,-31.0,-9999,N/A,30.19,10.0,Calm,Calm,-,N/A,,Clear,0,2012-12-07 19:53:00
11:53 AM,-29.9,-9999,N/A,30.19,10.0,Calm,Calm,-,N/A,,Clear,0,2012-12-07 20:53:00
12:53 PM,-27.9,-35.0,69,30.19,10.0,Calm,Calm,-,N/A,,Partly Cloudy,0,2012-12-07 21:53:00
1:53 PM,-26.0,-34.1,66,30.18,10.0,NNE,3.5,-,N/A,,Partly Cloudy,30,2012-12-07 22:53:00
2:53 PM,-26.0,-32.1,73,30.18,10.0,Calm,Calm,-,N/A,,Partly Cloudy,0,2012-12-07 23:53:00
3:53 PM,-25.1,-32.1,70,30.17,10.0,NNE,3.5,-,N/A,,Partly Cloudy,30,2012-12-08 00:53:00
4:53 PM,-24.0,-29.9,74,30.17,10.0,NNE,3.5,-,N/A,,Partly Cloudy,20,2012-12-08 01:53:00
5:53 PM,-26.0,-33.0,69,30.16,10.0,NE,4.6,-,N/A,,Partly Cloudy,40,2012-12-08 02:53:00
6:53 PM,-24.0,-29.9,74,30.15,10.0,NE,4.6,-,N/A,,Partly Cloudy,50,2012-12-08 03:53:00
7:53 PM,-24.0,-29.9,74,30.16,10.0,NE,3.5,-,N/A,,Partly Cloudy,50,2012-12-08 04:53:00
8:53 PM,-24.0,-29.9,74,30.15,10.0,NE,4.6,-,N/A,,Partly Cloudy,40,2012-12-08 05:53:00
9:53 PM,-24.0,-31.0,70,30.16,10.0,NNE,3.5,-,N/A,,Partly Cloudy,30,2012-12-08 06:53:00
10:53 PM,-24.0,-31.0,70,30.16,10.0,ENE,3.5,-,N/A,,Partly Cloudy,70,2012-12-08 07:53:00
11:53 PM,-27.0,-33.0,73,30.16,10.0,Calm,Calm,-,N/A,,Partly Cloudy,0,2012-12-08 08:53:00